Time,TemperatureF,DewpointF,PressureIn,WindDirection,WindDirectionDegrees,WindSpeedMPH,WindSpeedGustMPH,Humidity,HourlyPrecipIn,Conditions,Clouds,dailyrainin,SoftwareType,DateUTC
2013-06-23 00:00:00,43.0,-99.9,-100.00,North,-999,-999.0,-999.0,-999,-99.99,,,0.00,,2013-06-23 06:00:00,
2013-06-23 00:52:00,43.0,-99.9,-100.00,North,-999,-999.0,-999.0,-999,-99.99,,,0.00,,2013-06-23 06:52:00,
2013-06-23 02:00:00,40.0,-99.9,-100.00,North,-999,-999.0,-999.0,-999,-99.99,,,-99.99,,2013-06-23 08:00:00,
2013-06-23 03:00:00,39.0,-99.9,-100.00,North,-999,-999.0,-999.0,-999,-99.99,,,-99.99,,2013-06-23 09:00:00,
2013-06-23 04:00:00,38.0,-99.9,-100.00,North,-999,-999.0,-999.0,-999,-99.99,,,-99.99,,2013-06-23 10:00:00,
2013-06-23 05:00:00,38.0,-99.9,-100.00,North,-999,-999.0,-999.0,-999,-99.99,,,-99.99,,2013-06-23 11:00:00,
2013-06-23 06:00:00,38.0,-99.9,-100.00,North,-999,-999.0,-999.0,-999,-99.99,,,-99.99,,2013-06-23 12:00:00,
2013-06-23 07:00:00,38.0,-99.9,-100.00,North,-999,-999.0,-999.0,-999,-99.99,,,-99.99,,2013-06-23 13:00:00,
2013-06-23 08:00:00,42.0,-99.9,-100.00,North,-999,-999.0,-999.0,-999,-99.99,,,-99.99,,2013-06-23 14:00:00,
2013-06-23 09:00:00,49.0,-99.9,-100.00,North,-999,-999.0,-999.0,-999,-99.99,,,-99.99,,2013-06-23 15:00:00,
2013-06-23 10:00:00,52.0,-99.9,-100.00,North,-999,-999.0,-999.0,-999,-99.99,,,-99.99,,2013-06-23 16:00:00,
2013-06-23 10:53:00,52.0,-99.9,-100.00,North,-999,-999.0,-999.0,-999,-99.99,,,-99.99,,2013-06-23 16:53:00,
2013-06-23 11:00:00,54.0,-99.9,-100.00,North,-999,-999.0,-999.0,-999,-99.99,,,-99.99,,2013-06-23 17:00:00,
2013-06-23 11:53:00,54.0,-99.9,-100.00,North,-999,-999.0,-999.0,-999,-99.99,,,-99.99,,2013-06-23 17:53:00,
2013-06-23 12:00:00,60.0,-99.9,-100.00,North,-999,-999.0,-999.0,-999,-99.99,,,0.01,,2013-06-23 18:00:00,
2013-06-23 12:53:00,60.0,-99.9,-100.00,North,-999,-999.0,-999.0,-999,-99.99,,,0.01,,2013-06-23 18:53:00,
2013-06-23 13:00:00,62.0,-99.9,-100.00,North,-999,-999.0,-999.0,-999,-99.99,,,0.00,,2013-06-23 19:00:00,
2013-06-23 14:00:00,60.0,-99.9,-100.00,North,-999,-999.0,-999.0,-999,-99.99,,,0.02,,2013-06-23 20:00:00,
2013-06-23 14:53:00,60.0,-99.9,-100.00,North,-999,-999.0,-999.0,-999,-99.99,,,0.02,,2013-06-23 20:53:00,
2013-06-23 15:00:00,63.0,-99.9,-100.00,North,-999,-999.0,-999.0,-999,-99.99,,,0.02,,2013-06-23 21:00:00,
2013-06-23 15:52:00,63.0,-99.9,-100.00,North,-999,-999.0,-999.0,-999,-99.99,,,0.02,,2013-06-23 21:52:00,
2013-06-23 16:00:00,64.0,-99.9,-100.00,North,-999,-999.0,-999.0,-999,-99.99,,,0.02,,2013-06-23 22:00:00,
2013-06-23 18:00:00,62.0,-99.9,-100.00,North,-999,-999.0,-999.0,-999,-99.99,,,0.02,,2013-06-24 00:00:00,
2013-06-23 19:00:00,62.0,-99.9,-100.00,North,-999,-999.0,-999.0,-999,-99.99,,,0.03,,2013-06-24 01:00:00,
2013-06-23 19:53:00,62.0,-99.9,-100.00,North,-999,-999.0,-999.0,-999,-99.99,,,0.03,,2013-06-24 01:53:00,
2013-06-23 20:00:00,59.0,-99.9,-100.00,North,-999,-999.0,-999.0,-999,-99.99,,,0.04,,2013-06-24 02:00:00,
2013-06-23 21:00:00,56.0,-99.9,-100.00,North,-999,-999.0,-999.0,-999,-99.99,,,0.03,,2013-06-24 03:00:00,
2013-06-23 22:00:00,53.0,-99.9,-100.00,North,-999,-999.0,-999.0,-999,-99.99,,,0.04,,2013-06-24 04:00:00,
2013-06-23 22:53:00,53.0,-99.9,-100.00,North,-999,-999.0,-999.0,-999,-99.99,,,0.04,,2013-06-24 04:53:00,
2013-06-23 23:00:00,52.0,-99.9,-100.00,North,-999,-999.0,-999.0,-999,-99.99,,,0.03,,2013-06-24 05:00:00,